Baltimore, MD

6:44 PM EST on December 14, 2017 (GMT -0500)
Baltimore-Washington International

Weather History for KBWI - July, 2013

Change the Weather History Date:

Tuesday, July 23, 2013

  Actual Average Record
Temperature  
Mean Temperature 80 °F 77 °F  
Max Temperature 87 °F 87 °F 102 °F (1991)
Min Temperature 72 °F 67 °F 57 °F (1977)
Degree Days  
Heating Degree Days 0 0  
Month to date heating degree days 0 0  
Since 1 June heating degree days 0 15  
Since 1 July heating degree days 0 0  
Cooling Degree Days 15 12  
Month to date cooling degree days 367 274  
Year to date cooling degree days 775 596  
Since 1 June cooling degree days 644 512  
Growing Degree Days 30 (Base 50)    
Moisture  
Dew Point 69 °F    
Average Humidity 71    
Maximum Humidity 93    
Minimum Humidity 48    
Precipitation  
Precipitation 0.06 in 0.14 in 2.42 in (2008)
Month to date precipitation 2.72 2.99  
Year to date precipitation 24.39 23.48  
Snow  
Snow 0.00 in 0.00 in - ()
Month to date snowfall 0.0 0.0  
Since 1 July snowfall 0.0 0.0  
Snow Depth 0.00 in    
Sea Level Pressure  
Sea Level Pressure 29.70 in    
Wind  
Wind Speed 7 mph (West)    
Max Wind Speed 20 mph    
Max Gust Speed 26 mph    
Visibility 9 miles    
Events Rain , Thunderstorm    
T = Trace of Precipitation, MM = Missing Value Source: NWS Daily Summary

Daily Weather History Graph

Daily Weather History Graph

Search for Another Location

Airport or City:

Trip Planner

Search our weather history database for the weather conditions in past years. The results will help you decide how hot, cold, wet, or windy it might be!

Date:

Astronomy

Jul. 23, 2013 Rise Set
Actual Time 5:59 AM EDT 8:26 PM EDT
Civil Twilight 5:28 AM EDT 8:57 PM EDT
Nautical Twilight 4:50 AM EDT 9:34 PM EDT
Astronomical Twilight 4:08 AM EDT 10:16 PM EDT
Moon 8:54 PM EDT (7/23) 7:04 AM EDT (7/23)
Length of Visible Light 15h 28m
Length of Day
14h 27m
Full, 99% of the Moon is Illuminated
Jul 23
Full
Jul 29
Last Quarter
Aug 6
New
Aug 14
First Quarter
Aug 20
Full

Hourly Weather History & Observations

Time (EDT) Temp. Heat Index Dew Point Humidity Pressure Visibility Wind Dir Wind Speed Gust Speed Precip Events Conditions
12:09 AM 73.4 °F - 69.8 °F 88% 29.77 in 6.0 mi WSW 10.4 mph - 0.02 in Rain , Thunderstorm Thunderstorms and Rain
12:24 AM 73.4 °F - 69.8 °F 88% 29.76 in 3.0 mi SW 3.5 mph - 0.07 in Rain , Thunderstorm Light Thunderstorms and Rain
12:31 AM 73.4 °F - 69.8 °F 88% 29.76 in 7.0 mi SSW 3.5 mph - 0.07 in   Mostly Cloudy
12:54 AM 73.0 °F - 70.0 °F 90% 29.75 in 10.0 mi SSW 8.1 mph - 0.07 in   Mostly Cloudy
1:04 AM 73.4 °F - 69.8 °F 88% 29.75 in 3.0 mi South 5.8 mph - 0.03 in Rain Heavy Rain
1:22 AM 73.4 °F - 69.8 °F 88% 29.74 in 7.0 mi West 3.5 mph - 0.06 in   Mostly Cloudy
1:54 AM 73.0 °F - 71.1 °F 93% 29.73 in 10.0 mi WNW 3.5 mph - 0.06 in   Mostly Cloudy
2:04 AM 71.6 °F - 69.8 °F 94% 29.73 in 10.0 mi Calm Calm - N/A   Mostly Cloudy
2:54 AM 73.0 °F - 71.1 °F 93% 29.73 in 10.0 mi North 3.5 mph - N/A   Mostly Cloudy
3:24 AM 73.4 °F - 71.6 °F 94% 29.72 in 10.0 mi Calm Calm - N/A   Mostly Cloudy
3:50 AM 73.4 °F - 71.6 °F 94% 29.72 in 10.0 mi Calm Calm - N/A   Mostly Cloudy
3:54 AM 73.0 °F - 71.1 °F 93% 29.71 in 10.0 mi Calm Calm - N/A   Mostly Cloudy
4:32 AM 73.4 °F - 71.6 °F 94% 29.71 in 10.0 mi Calm Calm - N/A   Mostly Cloudy
4:54 AM 73.0 °F - 71.1 °F 93% 29.70 in 10.0 mi Calm Calm - N/A   Scattered Clouds
5:43 AM 71.6 °F - 71.6 °F 100% 29.70 in 10.0 mi Calm Calm - N/A   Mostly Cloudy
5:54 AM 73.0 °F - 71.1 °F 93% 29.70 in 10.0 mi Calm Calm - N/A   Mostly Cloudy
6:23 AM 73.4 °F - 71.6 °F 94% 29.71 in 10.0 mi NW 5.8 mph - N/A   Mostly Cloudy
6:54 AM 73.9 °F - 70.0 °F 87% 29.70 in 10.0 mi NW 4.6 mph - N/A   Mostly Cloudy
7:49 AM 73.4 °F - 71.6 °F 94% 29.71 in 10.0 mi WNW 5.8 mph - N/A   Mostly Cloudy
7:54 AM 75.0 °F - 71.1 °F 87% 29.70 in 10.0 mi WNW 5.8 mph - N/A   Mostly Cloudy
8:54 AM 75.9 °F - 71.1 °F 85% 29.70 in 10.0 mi West 6.9 mph - N/A   Mostly Cloudy
9:54 AM 79.0 °F - 70.0 °F 74% 29.70 in 10.0 mi NW 5.8 mph - N/A   Mostly Cloudy
10:54 AM 82.0 °F 86.3 °F 71.1 °F 69% 29.69 in 10.0 mi West 11.5 mph - N/A   Mostly Cloudy
11:54 AM 81.0 °F 84.1 °F 69.1 °F 67% 29.69 in 10.0 mi NW 8.1 mph - N/A   Mostly Cloudy
12:54 PM 86.0 °F 90.1 °F 69.1 °F 57% 29.68 in 10.0 mi NW 12.7 mph - N/A   Scattered Clouds
1:54 PM 84.9 °F 88.2 °F 68.0 °F 57% 29.67 in 10.0 mi West 12.7 mph - N/A   Scattered Clouds
2:54 PM 87.1 °F 90.6 °F 68.0 °F 53% 29.67 in 10.0 mi WNW 11.5 mph 20.7 mph N/A   Mostly Cloudy
3:54 PM 86.0 °F 89.4 °F 68.0 °F 55% 29.65 in 10.0 mi WNW 16.1 mph 20.7 mph N/A   Mostly Cloudy
4:54 PM 86.0 °F 88.2 °F 66.0 °F 51% 29.65 in 10.0 mi West 12.7 mph 21.9 mph N/A   Scattered Clouds
5:54 PM 86.0 °F 87.6 °F 64.9 °F 49% 29.64 in 10.0 mi NW 12.7 mph 19.6 mph N/A   Scattered Clouds
6:54 PM 84.9 °F 86.1 °F 64.0 °F 49% 29.65 in 8.0 mi WNW 11.5 mph - N/A   Partly Cloudy
7:54 PM 82.0 °F 83.8 °F 64.9 °F 56% 29.66 in 7.0 mi West 8.1 mph - N/A   Scattered Clouds
8:54 PM 79.0 °F - 66.0 °F 64% 29.67 in 7.0 mi West 5.8 mph - N/A   Scattered Clouds
9:54 PM 75.9 °F - 66.9 °F 74% 29.68 in 8.0 mi WSW 4.6 mph - N/A   Scattered Clouds
10:54 PM 75.9 °F - 68.0 °F 76% 29.69 in 9.0 mi SSW 3.5 mph - N/A   Scattered Clouds
11:54 PM 75.0 °F - 66.9 °F 76% 29.70 in 10.0 mi West 3.5 mph - N/A   Mostly Cloudy